• In Uzbekistan
  • List of Countries
  • For 7 days
  • Water Temperature
  • Satellite Maps
  • Weather Map
  • Weather Widgets
  • user-avatar
    Login

    Hourly Weather Cyklady

    Today, 21 October, Saturday

    Time Temperature Precipitation Wind Pressure Humidity
    00:00 +13°C° 0 mm 2 mps 686 mmHg 85%
    01:00 +13°C° 0 mm 2 mps 686 mmHg 85%
    02:00 +13°C° 0 mm 2 mps 686 mmHg 83%
    03:00 +12°C° 0 mm 2 mps 685 mmHg 82%
    04:00 +12°C° 0 mm 2 mps 685 mmHg 80%
    05:00 +13°C° 0 mm 2 mps 686 mmHg 76%
    06:00 +14°C° 0 mm 2 mps 686 mmHg 71%
    07:00 +14°C° 0 mm 2 mps 686 mmHg 66%
    08:00 +17°C° 0 mm 2 mps 686 mmHg 57%
    09:00 +19°C° 0 mm 2 mps 687 mmHg 49%
    10:00 +21°C° 0 mm 2 mps 687 mmHg 40%
    11:00 +21°C° 0 mm 2 mps 687 mmHg 39%
    12:00 +22°C° 0 mm 3 mps 687 mmHg 38%
    13:00 +22°C° 0 mm 3 mps 687 mmHg 37%
    14:00 +21°C° 0 mm 3 mps 686 mmHg 42%
    15:00 +20°C° 0 mm 3 mps 686 mmHg 46%
    16:00 +19°C° 0 mm 3 mps 686 mmHg 51%
    17:00 +18°C° 0 mm 3 mps 685 mmHg 59%
    18:00 +16°C° 0 mm 2 mps 685 mmHg 67%
    19:00 +15°C° 0 mm 2 mps 685 mmHg 75%
    20:00 +14°C° 0 mm 2 mps 685 mmHg 77%
    21:00 +14°C° 0 mm 2 mps 685 mmHg 80%
    22:00 +13°C° 0 mm 2 mps 685 mmHg 82%
    23:00 +13°C° 0 mm 2 mps 685 mmHg 82%

    Tomorrow, 22 October, Sunday

    Time Temperature Precipitation Wind Pressure Humidity
    00:00 +13°C° 0 mm 2 mps 685 mmHg 83%
    01:00 +12°C° 0 mm 2 mps 685 mmHg 84%
    02:00 +12°C° 0 mm 2 mps 684 mmHg 84%
    03:00 +12°C° 0 mm 2 mps 684 mmHg 83%
    04:00 +12°C° 0 mm 2 mps 684 mmHg 83%
    05:00 +12°C° 0 mm 2 mps 684 mmHg 79%
    06:00 +13°C° 0 mm 2 mps 684 mmHg 74%
    07:00 +14°C° 0 mm 2 mps 684 mmHg 70%
    08:00 +16°C° 0 mm 2 mps 685 mmHg 61%
    09:00 +18°C° 0 mm 2 mps 685 mmHg 52%
    10:00 +20°C° 0 mm 2 mps 686 mmHg 43%
    11:00 +21°C° 0 mm 2 mps 685 mmHg 42%
    12:00 +21°C° 0 mm 3 mps 685 mmHg 40%
    13:00 +22°C° 0 mm 3 mps 684 mmHg 39%
    14:00 +21°C° 0 mm 3 mps 684 mmHg 43%
    15:00 +20°C° 0 mm 3 mps 684 mmHg 48%
    16:00 +19°C° 0 mm 3 mps 683 mmHg 52%
    17:00 +17°C° 0 mm 3 mps 683 mmHg 60%
    18:00 +16°C° 0 mm 2 mps 683 mmHg 68%
    19:00 +14°C° 0 mm 2 mps 683 mmHg 76%
    20:00 +14°C° 0 mm 2 mps 683 mmHg 77%
    21:00 +13°C° 0 mm 2 mps 683 mmHg 79%
    22:00 +13°C° 0 mm 2 mps 682 mmHg 80%
    23:00 +13°C° 0 mm 2 mps 682 mmHg 79%

    Day after tomorrow, 23 October, Monday

    Time Temperature Precipitation Wind Pressure Humidity
    00:00 +12°C° 0 mm 2 mps 682 mmHg 78%
    01:00 +12°C° 0 mm 2 mps 682 mmHg 76%
    02:00 +12°C° 0 mm 2 mps 681 mmHg 75%
    03:00 +12°C° 0 mm 2 mps 681 mmHg 73%
    04:00 +12°C° 0 mm 2 mps 680 mmHg 72%
    05:00 +12°C° 0 mm 2 mps 680 mmHg 70%
    06:00 +13°C° 0 mm 2 mps 680 mmHg 69%
    07:00 +13°C° 0 mm 2 mps 680 mmHg 67%
    08:00 +15°C° 0 mm 2 mps 680 mmHg 59%
    09:00 +17°C° 0 mm 2 mps 681 mmHg 52%
    10:00 +19°C° 0 mm 2 mps 681 mmHg 44%
    11:00 +20°C° 0.1 mm 3 mps 680 mmHg 44%
    12:00 +20°C° 0.1 mm 3 mps 680 mmHg 45%
    13:00 +20°C° 0.1 mm 4 mps 679 mmHg 45%
    14:00 +19°C° 0.2 mm 3 mps 679 mmHg 51%
    15:00 +18°C° 0.2 mm 3 mps 678 mmHg 57%
    16:00 +17°C° 0.2 mm 3 mps 678 mmHg 63%
    17:00 +16°C° 0.2 mm 3 mps 677 mmHg 70%
    18:00 +13°C° 0.2 mm 3 mps 677 mmHg 77%
    19:00 +12°C° 0.2 mm 3 mps 677 mmHg 84%
    20:00 +12°C° 0.1 mm 3 mps 677 mmHg 86%
    21:00 +11°C° 0.1 mm 3 mps 676 mmHg 87%
    22:00 +11°C° 0.1 mm 3 mps 676 mmHg 89%
    23:00 +10°C° 0.3 mm 3 mps 676 mmHg 89%

    24 October, Tuesday

    Time Temperature Precipitation Wind Pressure Humidity
    00:00 +10°C° 0.3 mm 2 mps 675 mmHg 90%
    01:00 +10°C° 0.3 mm 2 mps 675 mmHg 91%
    02:00 +9°C° 0.6 mm 2 mps 675 mmHg 91%
    03:00 +9°C° 0.6 mm 3 mps 674 mmHg 91%
    04:00 +9°C° 0.6 mm 3 mps 674 mmHg 91%
    05:00 +9°C° 0.4 mm 2 mps 674 mmHg 89%
    06:00 +9°C° 0.4 mm 2 mps 674 mmHg 87%
    07:00 +10°C° 0.4 mm 2 mps 674 mmHg 84%
    08:00 +10°C° 0.5 mm 2 mps 674 mmHg 77%
    09:00 +12°C° 0.5 mm 2 mps 674 mmHg 69%
    10:00 +12°C° 0.5 mm 3 mps 674 mmHg 62%
    11:00 +13°C° 0.7 mm 3 mps 674 mmHg 60%
    12:00 +13°C° 0.7 mm 3 mps 674 mmHg 58%
    13:00 +13°C° 0.7 mm 3 mps 673 mmHg 56%
    14:00 +14°C° 0.7 mm 2 mps 673 mmHg 59%
    15:00 +13°C° 0.7 mm 2 mps 673 mmHg 63%
    16:00 +13°C° 0.7 mm 2 mps 673 mmHg 66%
    17:00 +12°C° 0.5 mm 2 mps 673 mmHg 70%
    18:00 +10°C° 0.5 mm 2 mps 673 mmHg 74%
    19:00 +9°C° 0.5 mm 2 mps 673 mmHg 78%
    20:00 +9°C° 0.1 mm 2 mps 674 mmHg 80%
    21:00 +9°C° 0.1 mm 2 mps 674 mmHg 82%
    22:00 +8°C° 0.1 mm 2 mps 674 mmHg 83%
    23:00 +8°C° 0 mm 2 mps 674 mmHg 85%

    25 October, Wednesday

    Time Temperature Precipitation Wind Pressure Humidity
    00:00 +8°C° 0 mm 2 mps 674 mmHg 86%
    01:00 +7°C° 0 mm 2 mps 674 mmHg 88%
    02:00 +7°C° 0 mm 2 mps 674 mmHg 88%
    03:00 +7°C° 0 mm 2 mps 674 mmHg 89%
    04:00 +7°C° 0 mm 2 mps 675 mmHg 90%
    05:00 +7°C° 0 mm 2 mps 675 mmHg 88%
    06:00 +8°C° 0 mm 2 mps 676 mmHg 86%
    07:00 +8°C° 0 mm 2 mps 676 mmHg 84%
    08:00 +10°C° 0 mm 2 mps 677 mmHg 76%
    09:00 +13°C° 0 mm 2 mps 678 mmHg 68%
    10:00 +14°C° 0 mm 2 mps 679 mmHg 59%
    11:00 +15°C° 0.1 mm 2 mps 679 mmHg 58%
    12:00 +15°C° 0.1 mm 2 mps 679 mmHg 56%
    13:00 +15°C° 0.1 mm 2 mps 679 mmHg 55%
    14:00 +15°C° 0.2 mm 2 mps 680 mmHg 59%
    15:00 +14°C° 0.2 mm 2 mps 680 mmHg 62%
    16:00 +13°C° 0.2 mm 2 mps 680 mmHg 66%
    17:00 +12°C° 0 mm 2 mps 681 mmHg 70%
    18:00 +10°C° 0 mm 2 mps 681 mmHg 75%
    19:00 +9°C° 0 mm 2 mps 682 mmHg 80%
    20:00 +9°C° 0.1 mm 2 mps 682 mmHg 80%
    21:00 +9°C° 0.1 mm 2 mps 682 mmHg 81%
    22:00 +9°C° 0.1 mm 3 mps 683 mmHg 81%
    23:00 +9°C° 0.1 mm 3 mps 683 mmHg 82%

    26 October, Thursday

    Time Temperature Precipitation Wind Pressure Humidity
    00:00 +9°C° 0.1 mm 3 mps 684 mmHg 83%
    01:00 +9°C° 0.1 mm 3 mps 684 mmHg 84%
    02:00 +9°C° 0 mm 3 mps 684 mmHg 85%
    03:00 +9°C° 0 mm 3 mps 684 mmHg 86%
    04:00 +8°C° 0 mm 3 mps 684 mmHg 88%
    05:00 +9°C° 0 mm 3 mps 685 mmHg 85%
    06:00 +9°C° 0 mm 3 mps 685 mmHg 83%
    07:00 +9°C° 0 mm 3 mps 686 mmHg 81%
    08:00 +10°C° 0 mm 2 mps 686 mmHg 74%
    09:00 +13°C° 0 mm 2 mps 687 mmHg 66%
    10:00 +14°C° 0 mm 2 mps 687 mmHg 58%
    11:00 +15°C° 0 mm 2 mps 687 mmHg 55%
    12:00 +16°C° 0 mm 2 mps 687 mmHg 52%
    13:00 +16°C° 0 mm 2 mps 687 mmHg 49%
    14:00 +16°C° 0 mm 2 mps 687 mmHg 52%
    15:00 +15°C° 0 mm 2 mps 687 mmHg 56%
    16:00 +14°C° 0 mm 2 mps 687 mmHg 59%
    17:00 +13°C° 0 mm 2 mps 687 mmHg 64%
    18:00 +12°C° 0 mm 2 mps 688 mmHg 68%
    19:00 +10°C° 0 mm 2 mps 688 mmHg 73%
    20:00 +10°C° 0 mm 2 mps 688 mmHg 75%
    21:00 +11°C° 0 mm 1 mps 688 mmHg 77%
    22:00 +10°C° 0 mm 1 mps 688 mmHg 80%
    23:00 +10°C° 0 mm 1 mps 688 mmHg 82%
    Show more